Regional Weather Roundup
Issued by NWS Albany, NY

Home | Current Version | Previous Version | Graphics & Text | Print | Product List | Glossary On
Versions: 1 2 3 4 5 6 7 8 9 10 11 12 13 14 15 16 17 18 19 20 21 22 23 24 25 26 27 28 29 30 31 32 33 34 35 36 37 38 39 40 41 42 43 44 45 46 47 48 49 50
000
ASUS41 KALY 202110
RWRALY

NEW YORK STATE HOURLY WEATHER ROUNDUP
NATIONAL WEATHER SERVICE ALBANY NY
500 PM EDT WED AUG 20 2014

NOTE: "FAIR" INDICATES FEW OR NO CLOUDS BELOW 12,000 FEET WITH NO
SIGNIFICANT WEATHER AND/OR NO OBSTRUCTIONS TO VISIBILITY.

NYZ032-033-038>043-046>054-057>066-NYZ062>081-202200-
EAST


CITY           SKY/WX    TMP DP  RH WIND       PRES   REMARKS
ALBANY         PTSUNNY   82  65  56 S6        29.95R
GLENS FALLS    SUNNY     82  64  54 S5        29.95S
POUGHKEEPSIE   PTSUNNY   84  66  54 S7        29.95R
NEWBURGH       MOSUNNY   84  66  54 VRB6      29.98R
MONTGOMERY     MOSUNNY   84  63  49 S9        29.95S
WHITE PLAINS   MOSUNNY   78  63  59 SE9       29.99R
ISLIP          MOSUNNY   76  58  53 VRB7      29.99R
NEW YORK CITY  MOSUNNY   81  55  40 S8        29.98R
CENTRAL PARK   SUNNY     81  57  43 VRB3      30.02R
$$

NYZ005>009-017-018-044>046-055-056-202200-
CENTRAL


CITY           SKY/WX    TMP DP  RH WIND       PRES   REMARKS
FULTON         LGT RAIN  72  67  84 S3        29.95R
SYRACUSE       LGT RAIN  74  70  87 SW7       29.95R FOG
ROME           PTSUNNY   78  70  76 W10       29.95R
ELMIRA         CLOUDY    75  70  83 CALM      29.95R
BINGHAMTON     CLOUDY    71  65  81 SW5       30.00R
MONTICELLO     MOSUNNY   79  64  61 SW8       30.01S
$$

NYZ026>034-041>043-202200-
NORTH


CITY           SKY/WX    TMP DP  RH WIND       PRES   REMARKS
WATERTOWN      CLOUDY    76  65  68 N3        29.94R
FORT DRUM      NOT AVBL
MASSENA        MOSUNNY   80  65  59 NE14      29.94S
SARANAC LAKE   MOSUNNY   78  62  57 E6        29.98R
PLATTSBURGH    MOSUNNY   79  62  56 SE9       29.95F
$$

NYZ001>004-010>016-019>021-202200-
WEST


CITY           SKY/WX    TMP DP  RH WIND       PRES   REMARKS
NIAGARA FALLS  PTSUNNY   76  65  68 S7        29.91R
BUFFALO        CLOUDY    76  64  66 W8        29.92R
DUNKIRK        MOSUNNY   76  65  68 N8        29.91S
JAMESTOWN      PTSUNNY   73  64  73 S5        29.96S
WELLSVILLE     CLOUDY    72  65  78 S5        30.00R
ROCHESTER      CLOUDY    74  67  78 SE9       29.94R
PENN YAN       LGT RAIN  71  67  87 CALM      29.97R FOG
$$

             KEY
       WCI = WIND CHILL INDEX
       VSB = VISIBILITY
       HX  = HEAT INDEX
$$


USA.gov is the U.S. government's official web portal to all federal, state and local government web resources and services.